[[{"header":{"parameterUnit":"m.s-1","parameterCategory":1,"la1":30.2991,"la2":30.254,"lo1":-89.0895,"lo2":-89.0444,"dy":0.0017,"dx":0.0017,"nx":28,"ny":28,"refTime":"2024-12-07T03:00:00:Z","depth":0,"parameterNumber":2,"parameterNumberName":"U-component_of_WINDS"},"data":[0,0,0,0,0,0,0,0,0,0,0,0,0,0,0,0,0,0,0,0,0,0,0,0,0,0,0,0,0,0,0,0,0,0,0,0,0,0,0,0,0,0,0,0,0,0,0,0,0,0,0,0,0,0,0,0,0,0,-2.7587,-2.7587,0,-2.7574,-2.7574,-2.7574,-2.7436,-2.7432,-2.7429,-2.7426,-2.7413,-2.7416,-2.7419,0,0,0,0,0,0,0,0,0,0,0,0,0,-2.7495,-2.7497,-2.7587,-2.7587,-2.7587,-2.7574,-2.7574,-2.7574,-2.7436,-2.7432,-2.7428,-2.7424,-2.7413,-2.7416,-2.7419,0,0,0,0,0,0,0,0,0,0,0,0,0,-2.7514,-2.7498,-2.7587,-2.7517,-2.751,-2.7574,-2.7574,-2.7574,-2.7437,-2.7432,-2.7427,-2.7422,-2.7411,-2.7416,-2.742,-2.755,0,0,-2.7433,-2.7435,0,0,0,0,0,0,0,0,-2.7513,-2.7517,-2.7527,-2.7522,-2.7515,-2.7501,-2.7536,-2.7566,-2.7439,-2.7465,-2.7426,-2.742,-2.7447,-2.7448,-2.7457,-2.755,-2.7549,-2.7433,-2.7436,-2.7438,-2.7439,0,0,0,0,0,0,0,-2.7512,-2.7517,-2.7582,-2.7528,-2.752,-2.7486,-2.7483,-2.7541,-2.7485,-2.7462,-2.7452,-2.7453,-2.7442,-2.7453,-2.7456,-2.7549,-2.7433,-2.7437,-2.744,-2.7442,-2.7748,-2.7753,0,0,0,0,0,0,-2.752,-2.7517,-2.7582,-2.7582,-2.7501,-2.7492,-2.7489,-2.7511,-2.7484,-2.7475,-2.7457,-2.7446,-2.7448,-2.7451,-2.7455,-2.7605,-2.7438,-2.7442,-2.7445,-2.7742,-2.7749,-2.7755,0,0,0,0,0,0,-2.7519,-2.7527,-2.7583,-2.7547,-2.7551,-2.7499,-2.7525,-2.7513,-2.7524,-2.748,-2.747,-2.7478,-2.7444,-2.7449,-2.7527,-2.7603,-2.7444,-2.7448,-2.7736,-2.7744,-2.7752,-2.7908,0,0,0,0,0,0,-2.7517,-2.7528,-2.7576,-2.7549,-2.7554,-2.7656,-2.753,-2.7517,-2.7531,-2.7517,-2.7497,-2.7489,-2.7441,-2.7522,-2.7532,-2.7606,-2.7451,-2.7729,-2.7739,-2.7749,-2.7896,-2.7921,-2.7942,0,0,0,0,0,-2.7514,-2.7621,-2.758,-2.7588,-2.7613,-2.7661,-2.7663,-2.7605,-2.7538,-2.7587,-2.7559,-2.749,-2.7593,-2.7531,-2.7541,-2.7618,-2.7724,-2.7736,-2.7748,-2.7886,-2.7916,-2.7941,0,0,0,0,0,0,-2.766,-2.7616,-2.757,-2.7671,-2.7671,-2.7637,-2.7697,-2.7639,-2.7658,-2.7644,-2.7571,-2.7568,-2.7658,-2.7645,-2.7577,-2.7742,-2.7646,-2.7661,-2.7747,-2.7775,-2.7798,-2.7799,-2.7455,0,0,0,0,0,-2.7704,-2.7745,-2.7705,-2.7799,-2.7801,-2.775,-2.7768,-2.7723,-2.772,-2.7719,-2.7696,-2.7696,-2.7728,-2.7751,-2.7778,-2.7893,-2.7887,-2.7951,-2.7974,-2.7993,-2.8007,-2.8067,-2.8095,-2.7796,-2.7796,-2.7795,0,0,-2.7795,-2.7776,-2.7807,-2.7828,-2.7822,-2.7867,-2.775,-2.7803,-2.7835,-2.7727,-2.7799,-2.7784,-2.7778,-2.7876,-2.7918,-2.7868,-2.8089,-2.8009,-2.8025,-2.8028,-2.8083,-2.8111,-2.8136,-2.7804,-2.7803,-2.7801,0,0,-2.7984,-2.7975,-2.8051,-2.8048,-2.804,-2.8005,-2.8024,-2.8,-2.7984,-2.8056,-2.7976,-2.8014,-2.8071,-2.807,-2.8078,-2.8267,-2.8204,-2.8278,-2.8398,-2.8457,-2.8481,-2.8502,-2.8569,-2.8594,-2.8292,-2.8293,-2.8293,0,-2.8099,-2.8163,-2.8098,-2.8156,-2.8167,-2.8071,-2.8148,-2.8148,-2.815,-2.8161,-2.8105,-2.8175,-2.8164,-2.826,-2.8307,-2.8316,-2.8335,-2.828,-2.8483,-2.8503,-2.8521,-2.8584,-2.861,-2.8302,-2.8301,-2.83,-2.8299,0,-2.8304,-2.835,-2.8413,-2.8417,-2.8435,-2.8503,-2.8449,-2.8475,-2.8429,-2.84,-2.8475,-2.8459,-2.8481,-2.8501,-2.8456,-2.8591,-2.856,-2.8496,-2.8397,-2.856,-2.8618,-2.8642,-2.8315,-2.8311,-2.8309,-2.8306,0,0,-2.8585,-2.8552,-2.8576,-2.8577,-2.8562,-2.8596,-2.8659,-2.868,-2.8705,-2.871,-2.8761,-2.8812,-2.8751,-2.876,-2.8714,-2.8766,-2.8917,-2.8694,-2.8693,-2.8736,-2.9064,-2.9113,-2.9143,-2.8876,-2.888,-2.8883,-2.9065,0,-2.8767,-2.8872,-2.8816,-2.8929,-2.897,-2.8879,-2.8934,-2.8931,-2.8906,-2.8938,-2.891,-2.8947,-2.8864,-2.8869,-2.8916,-2.8889,-2.8982,-2.8875,-2.8923,-2.8925,-2.8927,-2.9173,-2.9225,-2.9397,-2.9087,-2.9091,-2.9094,0,-2.8993,-2.9007,-2.9125,-2.9101,-2.9116,-2.9167,-2.9182,-2.9213,-2.9208,-2.9186,-2.9196,-2.9138,-2.9199,-2.9102,-2.9185,-2.9113,-2.9129,-2.9119,-2.9124,-2.9126,-2.9019,-2.9182,-2.945,-2.9476,-2.9129,-2.9126,-2.9124,0,-2.9186,-2.9234,-2.931,-2.9314,-2.9289,-2.9326,-2.9318,-2.9307,-2.9324,-2.9337,-2.9347,-2.9368,-2.9379,-2.9397,-2.9346,-2.9281,-2.9436,-2.9335,-2.9419,-2.9421,-2.9456,-2.9454,-2.9731,-2.9468,-2.9467,-2.9467,-2.9466,0,-2.9394,-2.947,-2.9396,-2.9443,-2.9525,-2.946,-2.9543,-2.9524,-2.9516,-2.9558,-2.9481,-2.9522,-2.9453,-2.9487,-2.9448,-2.9523,-2.9528,-2.9512,-2.9501,-2.9519,-2.9521,-2.9528,-2.9515,-2.9473,-2.9472,-2.9471,-2.9469,0,-2.9623,-2.9577,-2.9654,-2.9624,-2.9618,-2.968,-2.9654,-2.9696,-2.9666,-2.972,-2.9729,-2.9682,-2.9718,-2.967,-2.9702,-2.9675,-2.9777,-2.9748,-2.9779,-2.977,-2.9857,-2.985,-3.0148,-3.0183,-2.9898,-2.9901,-2.9903,0,-2.9759,-2.9815,-2.9791,-2.9813,-2.9809,-2.9846,-2.9862,-2.98,-2.9821,-2.9819,-2.9862,-2.9892,-2.9912,-2.9975,-2.9944,-2.9968,-2.9939,-3.0041,-2.9942,-2.9958,-2.994,-2.9937,-2.9942,-3.0062,-3.0065,-3.0068,-3.007,0,-3.0005,-2.998,-3.0006,-3.0025,-3.0046,-3.0058,-3.0064,-3.0087,-3.0022,-3.0049,-3.0085,-3.0101,-3.0134,-3.0164,-3.018,-3.0171,-3.0111,-3.0102,-3.0123,-3.0141,-3.0157,-3.0149,-2.9834,-3.0095,-3.0093,-3.0091,-3.009,-3.0089,-3.0191,-3.0236,-3.0226,-3.0258,-3.0256,-3.0264,-3.0302,-3.0276,-3.0305,-3.0326,-3.0288,-3.0334,-3.0328,-3.0342,-3.0341,-3.0376,-3.0331,-3.0362,-3.0369,-3.0378,-3.0391,-3.0152,-3.0379,-3.0378,-3.0377,-3.0377,-3.0376,0,-3.0433,-3.0422,-3.0452,-3.0462,-3.0488,-3.0428,-3.0432,-3.0457,-3.0498,-3.0497,-3.0519,-3.056,-3.059,-3.0561,-3.0585,-3.0619,-3.0592,-3.0628,-3.0624,-3.0623,-3.0429,-3.0409,-3.0649,-3.0649,-3.0649,-3.0649,-3.0649,-3.0649,-3.0561,-3.0634,-3.0608,-3.0679,-3.0667,-3.0712,-3.0719,-3.0726,-3.0724,-3.0774,-3.0798,-3.0779,-3.0767,-3.079,-3.0814,-3.0805,-3.0817,-3.0863,-3.0844,-3.0664,-3.0637,-3.0611,-3.0591,-3.0866,-3.0867,-3.1034,-3.1036,-3.1037]},{"header":{"parameterUnit":"m.s-1","parameterCategory":1,"la1":30.2991,"la2":30.254,"lo1":-89.0895,"lo2":-89.0444,"dy":0.0017,"dx":0.0017,"nx":28,"ny":28,"refTime":"2024-12-07T03:00:00:Z","depth":0,"parameterNumber":3,"parameterNumberName":"V-component_of_WINDS"},"data":[0,0,0,0,0,0,0,0,0,0,0,0,0,0,0,0,0,0,0,0,0,0,0,0,0,0,0,0,0,0,0,0,0,0,0,0,0,0,0,0,0,0,0,0,0,0,0,0,0,0,0,0,0,0,0,0,0,0,-1.0106,-1.0106,0,-1.0157,-1.0158,-1.0158,-1.0213,-1.0213,-1.0214,-1.0215,-1.0267,-1.0267,-1.0268,0,0,0,0,0,0,0,0,0,0,0,0,0,-1.0053,-1.0054,-1.0106,-1.0106,-1.0107,-1.0157,-1.0158,-1.0158,-1.0212,-1.0213,-1.0214,-1.0215,-1.0267,-1.0267,-1.0268,0,0,0,0,0,0,0,0,0,0,0,0,0,-1.0087,-1.0054,-1.0106,-1.014,-1.0144,-1.0157,-1.0158,-1.0158,-1.0212,-1.0213,-1.0215,-1.0216,-1.0266,-1.0267,-1.0268,-1.0251,0,0,-1.0271,-1.0272,0,0,0,0,0,0,0,0,-1.0085,-1.0089,-1.0134,-1.0138,-1.0142,-1.018,-1.0158,-1.019,-1.0212,-1.0186,-1.0215,-1.0216,-1.0237,-1.024,-1.0247,-1.0254,-1.0256,-1.0271,-1.0272,-1.0273,-1.0273,0,0,0,0,0,0,0,-1.0083,-1.0087,-1.0126,-1.0135,-1.0139,-1.0152,-1.0159,-1.0164,-1.0204,-1.0189,-1.0193,-1.0198,-1.0239,-1.0246,-1.0249,-1.0257,-1.0271,-1.0272,-1.0273,-1.0273,-1.0249,-1.0248,0,0,0,0,0,0,-1.0075,-1.0085,-1.0124,-1.0128,-1.0116,-1.0152,-1.0159,-1.0166,-1.0205,-1.0211,-1.0197,-1.02,-1.0244,-1.0248,-1.0251,-1.0231,-1.0273,-1.0273,-1.0274,-1.025,-1.0249,-1.0247,0,0,0,0,0,0,-1.0074,-1.0078,-1.0122,-1.0107,-1.0114,-1.0152,-1.0159,-1.0167,-1.0174,-1.0211,-1.0218,-1.0197,-1.0245,-1.025,-1.025,-1.0234,-1.0274,-1.0275,-1.0252,-1.025,-1.0248,-1.0193,0,0,0,0,0,0,-1.0072,-1.0078,-1.0072,-1.0107,-1.0115,-1.0121,-1.0159,-1.0167,-1.0176,-1.018,-1.0213,-1.0219,-1.0246,-1.0248,-1.0251,-1.0236,-1.0276,-1.0253,-1.0251,-1.0249,-1.0196,-1.019,-1.0184,0,0,0,0,0,-1.007,-1.0055,-1.0072,-1.0076,-1.0108,-1.012,-1.0124,-1.0156,-1.0174,-1.0168,-1.0192,-1.0218,-1.0236,-1.0248,-1.0252,-1.0237,-1.0254,-1.0251,-1.0249,-1.0199,-1.0191,-1.0184,0,0,0,0,0,0,-1.0018,-1.0061,-1.0079,-1.0075,-1.0093,-1.0129,-1.0123,-1.0146,-1.016,-1.0164,-1.0203,-1.0209,-1.0205,-1.0221,-1.0234,-1.0221,-1.0249,-1.0246,-1.021,-1.0202,-1.0196,-1.0191,-1.0276,0,0,0,0,0,-1.0006,-1.0012,-1.0049,-1.0042,-1.005,-1.0084,-1.0091,-1.0113,-1.0134,-1.0142,-1.0166,-1.0184,-1.0194,-1.0199,-1.0211,-1.02,-1.0206,-1.0191,-1.0185,-1.0179,-1.0176,-1.0169,-1.0161,-1.0238,-1.0238,-1.0238,0,0,-0.9981,-1.0005,-1.0007,-1.0032,-1.0049,-1.0053,-1.0091,-1.0095,-1.0098,-1.0143,-1.0144,-1.0162,-1.0185,-1.0179,-1.0178,-1.0193,-1.0156,-1.0176,-1.0171,-1.0171,-1.0165,-1.0158,-1.0151,-1.0236,-1.0237,-1.0237,0,0,-0.9938,-0.9958,-0.9952,-0.9968,-0.9993,-1.0016,-1.0014,-1.0046,-1.006,-1.0062,-1.0094,-1.0099,-1.0115,-1.0129,-1.0139,-1.0099,-1.0123,-1.0101,-1.0067,-1.0059,-1.0053,-1.0048,-1.0031,-1.0025,-1.0099,-1.0099,-1.0098,0,-0.9904,-0.9912,-0.9947,-0.9947,-0.9956,-0.9997,-0.9991,-1.0005,-1.0032,-1.0036,-1.0053,-1.0072,-1.0091,-1.0088,-1.0077,-1.0085,-1.0083,-1.0097,-1.0051,-1.0047,-1.0042,-1.0026,-1.002,-1.0096,-1.0096,-1.0096,-1.0097,0,-0.9867,-0.9873,-0.9865,-0.9889,-0.9898,-0.9895,-0.9928,-0.9933,-0.9954,-0.9975,-0.9975,-0.9999,-1.0014,-1.0015,-1.0037,-1.0014,-1.0022,-1.0045,-1.0073,-1.0031,-1.0017,-1.0011,-1.0091,-1.0092,-1.0093,-1.0094,0,0,-0.9792,-0.9834,-0.9831,-0.9841,-0.9871,-0.9875,-0.9874,-0.9888,-0.989,-0.9907,-0.9905,-0.9917,-0.9937,-0.9948,-0.9972,-0.9965,-0.9928,-0.9988,-0.9989,-0.9974,-0.9901,-0.9881,-0.9874,-0.9945,-0.9944,-0.9943,-0.9898,0,-0.9752,-0.9752,-0.9782,-0.9773,-0.9776,-0.9814,-0.9813,-0.983,-0.9849,-0.9854,-0.9876,-0.9882,-0.991,-0.9916,-0.9912,-0.9933,-0.9913,-0.9938,-0.9942,-0.9941,-0.9932,-0.9867,-0.9848,-0.9803,-0.9893,-0.9892,-0.9891,0,-0.9705,-0.9718,-0.9709,-0.9737,-0.9739,-0.9737,-0.9751,-0.9757,-0.9777,-0.9791,-0.9801,-0.9828,-0.9827,-0.9855,-0.9853,-0.9869,-0.9872,-0.9883,-0.9882,-0.9882,-0.9912,-0.9862,-0.9791,-0.9783,-0.9883,-0.9884,-0.9884,0,-0.9648,-0.9663,-0.9659,-0.9667,-0.97,-0.9697,-0.9711,-0.9732,-0.9738,-0.975,-0.9754,-0.9767,-0.9773,-0.9781,-0.9809,-0.9828,-0.9803,-0.9834,-0.9813,-0.9812,-0.9804,-0.9804,-0.9729,-0.9811,-0.9811,-0.9811,-0.9811,0,-0.9598,-0.959,-0.9633,-0.963,-0.9622,-0.9656,-0.9647,-0.9664,-0.9682,-0.9682,-0.9717,-0.9716,-0.9755,-0.9758,-0.978,-0.9773,-0.9777,-0.9787,-0.9792,-0.9782,-0.978,-0.9783,-0.9786,-0.9809,-0.981,-0.981,-0.981,0,-0.9532,-0.9561,-0.9558,-0.9589,-0.9596,-0.9588,-0.9614,-0.9612,-0.9633,-0.9633,-0.9635,-0.9667,-0.9672,-0.9702,-0.9715,-0.973,-0.9714,-0.9727,-0.9706,-0.971,-0.9685,-0.9686,-0.9608,-0.9598,-0.9688,-0.9687,-0.9687,0,-0.9497,-0.9492,-0.9521,-0.9524,-0.9535,-0.9539,-0.9545,-0.9578,-0.9583,-0.9603,-0.9598,-0.9606,-0.9614,-0.9621,-0.9645,-0.9654,-0.9666,-0.9638,-0.9667,-0.9656,-0.9662,-0.966,-0.9659,-0.9631,-0.9629,-0.9628,-0.9628,0,-0.9432,-0.9446,-0.9453,-0.9463,-0.9469,-0.948,-0.9492,-0.9492,-0.9529,-0.9532,-0.9537,-0.9543,-0.9555,-0.9562,-0.9574,-0.9588,-0.9612,-0.9618,-0.9613,-0.9602,-0.9589,-0.9592,-0.9686,-0.962,-0.962,-0.9621,-0.9621,-0.9622,-0.9378,-0.9374,-0.9393,-0.9399,-0.9412,-0.9422,-0.9421,-0.9441,-0.9446,-0.9458,-0.9477,-0.9479,-0.9497,-0.9517,-0.9528,-0.9529,-0.9544,-0.9537,-0.9535,-0.9532,-0.9526,-0.9591,-0.9532,-0.9532,-0.9532,-0.9533,-0.9533,0,-0.9312,-0.9326,-0.9331,-0.9346,-0.935,-0.9374,-0.9389,-0.939,-0.9391,-0.9406,-0.9412,-0.9417,-0.9423,-0.9447,-0.9456,-0.9452,-0.9463,-0.9452,-0.9452,-0.9454,-0.9514,-0.9516,-0.9443,-0.9443,-0.9443,-0.9443,-0.9443,-0.9443,-0.9277,-0.927,-0.9286,-0.9285,-0.9299,-0.9301,-0.9307,-0.9316,-0.9327,-0.9331,-0.9336,-0.9351,-0.9369,-0.9379,-0.9384,-0.9391,-0.9391,-0.9376,-0.9386,-0.9441,-0.945,-0.9458,-0.946,-0.9377,-0.9377,-0.9326,-0.9326,-0.9325]}]]